Content
SEND FEEDBACK

Daily
Averages
Monthly
Summary
United States of America

BRUSH, COLORADO


Home > North America > United States > Colorado
Elevation: 4280 feet     Latitude: 40 16N     Longitude: 103 34W

WEATHER
 
SELECT A DAY
Number of Records: 200,689;   Date Range: 1/1/95 - 8/25/14
 
SHARE

PRINT THIS DATA

[ ← Previous Day ]
WEATHER ALMANAC - FEBRUARY 13, 2013
[ Next Day → ]
[ °C ]   °F
Weather ElementAverageHighLow
Temperature33.8 °F50 °F (2:53 pm)19 °F (6:53 am)
Dewpoint12 °F21.9 °F (11:53 pm)7 °F (6:53 am)
Humidity43.9 %78 % (11:53 pm)24 % (12:53 pm)
Barometer30.00 in30.05 in (6:53 am)29.90 in (2:53 pm)
Wind Speed15.7 mph28.8 mph (12:53 pm)
Wind Gust35.7 mph (12:53 pm)
Weather ElementAverage
Visibility10 mi
Wind DirectionWNW (290.5 °)

Weather ElementTotal
Precipitation---
Heating Degree Days30.5 (Base 65)
Averaged from 19 records on February 13, 2013
WEATHER CONDITIONS BREAKOUT
WIND DIRECTION BREAKOUT
WEATHER BY HOUR - FEBRUARY 13, 2013
[ °C ]   °F
Local TimeTemperatureDewpointHumidityBarometerVisibilityWind DirectionWind SpeedGust SpeedPrecipitationEventsConditions
1:53 AM21.9 °F10.0 °F60 %30.03 in10.0 miWest (260°)17.3 mphClear
2:53 AM19.9 °F9.0 °F62 %30.01 in10.0 miWSW (250°)15.0 mphClear
3:53 AM21.0 °F9.0 °F60 %29.99 in10.0 miWSW (250°)16.1 mphClear
5:53 AM19.9 °F8.1 °F60 %30.03 in10.0 miSW (220°)11.5 mphClear
6:53 AM19.0 °F7.0 °F59 %30.05 in10.0 miWSW (250°)9.2 mphClear
7:53 AM25.0 °F8.1 °F49 %30.05 in10.0 miWSW (240°)10.4 mphClear
8:53 AM28.0 °F9.0 °F45 %30.04 in10.0 miWSW (250°)10.4 mphClear
9:53 AM37.9 °F9.0 °F30 %30.01 in10.0 miWNW (300°)9.2 mphClear
10:53 AM39.0 °F10.0 °F30 %30.01 in10.0 miNW (320°)10.4 mphClear
11:53 AM39.9 °F9.0 °F28 %30.00 in10.0 miWNW (290°)12.7 mphClear
12:53 PM48.0 °F12.0 °F24 %29.95 in10.0 miNW (310°)28.8 mph35.7 mphPartly Cloudy
1:53 PM48.9 °F14.0 °F25 %29.91 in10.0 miNW (310°)23.0 mph35.7 mphClear
2:53 PM50.0 °F14.0 °F24 %29.90 in10.0 miNW (310°)19.6 mph35.7 mphClear
3:53 PM48.9 °F15.1 °F26 %29.91 in10.0 miNNW (340°)20.7 mph32.2 mphScattered Clouds
4:53 PM45.0 °F14.0 °F29 %29.94 in10.0 miNW (320°)20.7 mph27.6 mphClear
5:53 PM35.1 °F14.0 °F42 %30.00 in10.0 miNNW (330°)11.5 mphClear
7:53 PM36.0 °F17.1 °F46 %30.01 in10.0 miWNW (300°)19.6 mph25.3 mphClear
9:53 PM30.9 °F17.1 °F57 %30.03 in10.0 miNNW (330°)18.4 mphClear
11:53 PM28.0 °F21.9 °F78 %30.04 in10.0 miNNW (340°)13.8 mphClear
Hourly data recorded from KAKO, located miles away from Brush, Colorado







STORIES FROM OUR PARTNERS